sat.trackr.live / text

‹ back to catalog

STARLINK-33886

NORAD 63681 · 2025-085T

PAYLOAD ACTIVE UNKNOWN

§ Identity

Operator
Country
US
Launch date
2025-04-28
Launch site
AFETR
Launch vehicle
Mass (kg)
RCS (m²)

Purposes: comms

External: N2YO · Heavens-Above · Gunter

§ Orbital elements

Epoch: 2026-05-25T04:16:50.553696Z

Period
94.27 min
Inclination
43.0036°
Eccentricity
0.0001291
Mean motion
15.27592006 rev/d
Perigee alt
482.1 km
Apogee alt
483.9 km
Semi-major
6,861.2 km
B*
8.7886e-4
RAAN
318.4469°
Arg perigee
278.6431°
Mean anomaly
81.4274°
Rev number
6,057

§ Raw data

STARLINK-338861 63681U 25085T   26145.17836289  .00024010  00000+0  87886-3 0  99922 63681  43.0036 318.4469 0001291 278.6431  81.4274 15.27592006 60572

JSON: /api/v1/satellites/63681 · /tle

For live sub-satellite position, see the globe view (requires WebGL).

§ Visibility from observer

Set your observer location to see the next 7 days of passes ≥ 10°. The values pass through the URL so the page stays shareable.

No JS? Fill the form by hand. The geolocation button needs JavaScript.